• In Czech Republic
  • List of Countries
  • For 7 days
  • Water Temperature
  • Satellite Maps
  • Weather Map
  • Weather Widgets
  • user-avatar
    Login

    Hourly Weather Gorodenka

    Today, 16 January, Tuesday

    Time Temperature Precipitation Wind Pressure Humidity
    00:00 -12°C° 0 mm 4 mps 741 mmHg 99%
    01:00 -14°C° 0 mm 4 mps 740 mmHg 100%
    02:00 -14°C° 0 mm 2 mps 740 mmHg 93%
    03:00 -15°C° 0 mm 4 mps 740 mmHg 98%
    04:00 -16°C° 0 mm 4 mps 739 mmHg 100%
    05:00 -16°C° 0 mm 4 mps 738 mmHg 100%
    06:00 -16°C° 0 mm 4 mps 737 mmHg 100%
    07:00 -16°C° 0 mm 4 mps 737 mmHg 100%
    08:00 -16°C° 0 mm 4 mps 736 mmHg 100%
    09:00 -16°C° 0 mm 4 mps 735 mmHg 100%
    10:00 -16°C° 0 mm 4 mps 735 mmHg 100%
    11:00 -15°C° 0 mm 4 mps 734 mmHg 100%
    12:00 -14°C° 0 mm 4 mps 733 mmHg 100%
    13:00 -12°C° 0 mm 4 mps 732 mmHg 100%
    14:00 -12°C° 0 mm 4 mps 731 mmHg 100%
    15:00 -11°C° 0 mm 4 mps 731 mmHg 100%
    16:00 -11°C° 0 mm 4 mps 729 mmHg 100%
    17:00 -12°C° 0 mm 5 mps 729 mmHg 100%
    18:00 -11°C° 0 mm 5 mps 728 mmHg 100%
    19:00 -11°C° 0.1 mm 6 mps 727 mmHg 100%
    20:00 -11°C° 0.2 mm 6 mps 725 mmHg 100%
    21:00 -10°C° 0 mm 6 mps 725 mmHg 100%
    22:00 -10°C° 0.1 mm 5 mps 724 mmHg 100%
    23:00 -9°C° 0 mm 4 mps 724 mmHg 100%

    Tomorrow, 17 January, Wednesday

    Time Temperature Precipitation Wind Pressure Humidity
    00:00 -9°C° 0 mm 4 mps 723 mmHg 100%
    01:00 -10°C° 0 mm 4 mps 722 mmHg 100%
    02:00 -8°C° 0 mm 3 mps 722 mmHg 100%
    03:00 -9°C° 0 mm 3 mps 722 mmHg 100%
    04:00 -8°C° 0 mm 2 mps 721 mmHg 100%
    05:00 -8°C° 0 mm 2 mps 721 mmHg 100%
    06:00 -8°C° 0 mm 2 mps 721 mmHg 100%
    07:00 -9°C° 0 mm 3 mps 721 mmHg 100%
    08:00 -9°C° 0 mm 3 mps 721 mmHg 100%
    09:00 -6°C° 0 mm 2 mps 721 mmHg 97%
    10:00 -5°C° 0 mm 2 mps 721 mmHg 100%
    11:00 -2°C° 0.6 mm 2 mps 721 mmHg 100%
    12:00 +1°C° 0.7 mm 1 mps 721 mmHg 100%
    13:00 +1°C° 1.1 mm 1 mps 721 mmHg 100%
    14:00 0°C° 1.6 mm 0 mps 721 mmHg 100%
    15:00 +1°C° 0.1 mm 0 mps 720 mmHg 100%
    16:00 +1°C° 0 mm 0 mps 720 mmHg 100%
    17:00 +1°C° 0 mm 1 mps 720 mmHg 100%
    18:00 -1°C° 0 mm 2 mps 720 mmHg 100%
    19:00 -1°C° 0 mm 1 mps 720 mmHg 100%
    20:00 -3°C° 0 mm 2 mps 720 mmHg 100%
    21:00 -1°C° 0 mm 1 mps 720 mmHg 100%
    22:00 -4°C° 0 mm 2 mps 720 mmHg 100%
    23:00 -5°C° 0 mm 4 mps 721 mmHg 100%

    Day after tomorrow, 18 January, Thursday

    Time Temperature Precipitation Wind Pressure Humidity
    00:00 -5°C° 0.4 mm 3 mps 722 mmHg 100%
    01:00 -4°C° 0.4 mm 3 mps 722 mmHg 100%
    02:00 -5°C° 0 mm 5 mps 722 mmHg 100%
    03:00 -6°C° 0 mm 7 mps 723 mmHg 100%
    04:00 -7°C° 0 mm 7 mps 723 mmHg 100%
    05:00 -8°C° 0 mm 7 mps 723 mmHg 100%
    06:00 -9°C° 0 mm 7 mps 723 mmHg 100%
    07:00 -9°C° 0 mm 7 mps 724 mmHg 100%
    08:00 -9°C° 0 mm 7 mps 724 mmHg 99%
    09:00 -10°C° 0 mm 6 mps 725 mmHg 99%
    10:00 -10°C° 0 mm 6 mps 725 mmHg 98%
    11:00 -9°C° 0 mm 6 mps 725 mmHg 98%
    12:00 -8°C° 0 mm 7 mps 726 mmHg 100%
    13:00 -6°C° 0 mm 7 mps 726 mmHg 99%
    14:00 -5°C° 0 mm 8 mps 726 mmHg 99%
    15:00 -4°C° 0 mm 7 mps 726 mmHg 98%
    16:00 -4°C° 0 mm 7 mps 726 mmHg 96%
    17:00 -6°C° 0 mm 5 mps 727 mmHg 98%
    18:00 -6°C° 0 mm 3 mps 727 mmHg 100%
    19:00 -6°C° 0 mm 2 mps 727 mmHg 100%
    20:00 -7°C° 0 mm 2 mps 726 mmHg 89%
    21:00 -10°C° 0 mm 3 mps 725 mmHg 95%
    22:00 -11°C° 0 mm 4 mps 723 mmHg 93%
    23:00 -9°C° 0 mm 3 mps 723 mmHg 94%

    19 January, Friday

    Time Temperature Precipitation Wind Pressure Humidity
    00:00 -9°C° 0 mm 4 mps 722 mmHg 94%
    01:00 -7°C° 0 mm 3 mps 721 mmHg 96%
    02:00 -6°C° 0 mm 2 mps 721 mmHg 99%
    03:00 -5°C° 0 mm 2 mps 721 mmHg 97%
    04:00 -5°C° 0 mm 3 mps 721 mmHg 92%
    05:00 -5°C° 0 mm 4 mps 721 mmHg 92%
    06:00 -6°C° 0 mm 5 mps 721 mmHg 91%
    07:00 -5°C° 0 mm 5 mps 721 mmHg 91%
    08:00 -5°C° 0 mm 6 mps 722 mmHg 90%
    09:00 -5°C° 0 mm 6 mps 722 mmHg 90%
    10:00 -4°C° 0 mm 6 mps 723 mmHg 89%
    11:00 -3°C° 0 mm 6 mps 723 mmHg 89%
    12:00 -1°C° 0 mm 6 mps 724 mmHg 88%
    13:00 -1°C° 0 mm 6 mps 724 mmHg 88%
    14:00 -1°C° 0 mm 6 mps 725 mmHg 89%
    15:00 -1°C° 0 mm 6 mps 726 mmHg 91%
    16:00 -1°C° 0 mm 5 mps 726 mmHg 94%
    17:00 -3°C° 0 mm 4 mps 727 mmHg 95%
    18:00 -4°C° 0 mm 3 mps 727 mmHg 97%
    19:00 -5°C° 0 mm 3 mps 728 mmHg 98%
    20:00 -6°C° 0 mm 6 mps 728 mmHg 97%
    21:00 -6°C° 0 mm 6 mps 728 mmHg 98%
    22:00 -6°C° 0 mm 5 mps 728 mmHg 98%
    23:00 -6°C° 0 mm 5 mps 729 mmHg 98%

    20 January, Saturday

    Time Temperature Precipitation Wind Pressure Humidity
    00:00 -3°C° 0 mm 1 mps 730 mmHg 99%
    01:00 -3°C° 0 mm 1 mps 731 mmHg 100%
    02:00 -3°C° 0 mm 1 mps 731 mmHg 100%

    21 January, Sunday

    Time Temperature Precipitation Wind Pressure Humidity
    Show more